Aérodrome :
LOGIN :

S'inscrire | Disclaimer

   EN    FR    IT 

 










Légende :    VFR   VFR Marginal   IFR   IFR Intensif   IFR Très Intensif
Visi : 
Plafond : 
>= 8 km
>= 3000ft
5 à 8 km
1000 à 3000 ft
1500m à 5 km
500 à 1000 ft
800 à 1500m
200 à 500 ft
< 800m
< 200 ft
Symboles :   Orages  Brouillard  Fortes neiges  Fortes précipitations  Vent > 20 kt
SIGMETs :   Divers  Orages  Givrage  Turbulence  Onde Orograph.  Cendres Volcan.







- Altitude de l'aérodrome : 325 ft
- Code IATA : POX
- Voir les cartes d'approche


LFPT - Pontoise

DERNIER METAR :
  • 191030Z AUTO 34005KT 290V030 9999 FEW025 BKN036 08/04 Q1023

METARs EXPIRÉS :
  • 191000Z AUTO 33004KT 9999 FEW036 08/04 Q1023
  • 190930Z AUTO 32004KT 9999 SCT035 07/05 Q1023
  • 190900Z AUTO 29003KT CAVOK 07/05 Q1023
  • 190830Z AUTO 31003KT 9999 FEW034 06/05 Q1023
  • 190800Z AUTO 31003KT CAVOK 05/04 Q1022

TAF N/A
ATIS : +33 1 30 30 52 08
Pas de NOTAMs connus pour ce terrain.



MET'MAP, la Météo Aéronautique d'un coup d'oeil ! - Copyright ORBIFLY Décembre 2007 - Disclaimer

ORBIFLY MET'MAP TEAM :

Programmation & Développement : Alexandra Zaïnal
Conception & Développement : Baudouin d'Aumeries
Co-Programmation & Développement : Marc-Olivier Méhu
Soutien technique & logistique : Manuel Goepfert

Contact : metmap@orbifly.com




SOURCES & CREDITS :

   NOAA